^^
Saratoga-Weather Station Historical Data
Daily Summary for March 23, 2021 Units:  English    Metric   Both
Daily Weekly Monthly Yearly Custom
  High: Low: Average:
Temperature: 75.4 °F 60.4 °F 65.5 °F
Dew Point: 62.6 °F 57.4 °F 59.5 °F
Humidity: 93% 58% 82%
Wind Speed: 12.1mph 0mph 3mph
Wind Gust: 12mph - -
Wind- - SW
Pressure: 30.2 in 30.1 in -
Precipitation: 0 in    
Historical Graphs
 
 
Tabular Data for March 23, 2021
Time Temperature Dew Point Pressure Wind Wind Speed Wind Gust Humidity Rainfall Rate (Hourly) solar
00:01 61.9 °F 57.9 °F 30.1 in West 2.9 mph 4 mph 87% 0 in 0 W/m2
00:06 61.7 °F 58.1 °F 30.1 in West 2.9 mph 4 mph 88% 0 in 0 W/m2
00:11 61.5 °F 57.9 °F 30.1 in WSW 2.9 mph 4 mph 88% 0 in 0 W/m2
00:16 61.5 °F 57.9 °F 30.1 in WNW 2 mph 6 mph 88% 0 in 0 W/m2
00:21 61.5 °F 58.3 °F 30.1 in West 4 mph 4 mph 89% 0 in 0 W/m2
00:27 61.5 °F 58.3 °F 30.1 in West 4 mph 5 mph 89% 0 in 0 W/m2
00:32 61.5 °F 58.3 °F 30.1 in West 2 mph 4 mph 89% 0 in 0 W/m2
00:37 61.5 °F 58.3 °F 30.1 in WNW 2 mph 4 mph 89% 0 in 0 W/m2
00:42 61.5 °F 58.3 °F 30.1 in WSW 2 mph 4 mph 89% 0 in 0 W/m2
00:47 61.5 °F 58.3 °F 30.1 in West 2 mph 3 mph 89% 0 in 0 W/m2
00:52 61.5 °F 58.3 °F 30.1 in West 2.9 mph 4 mph 89% 0 in 0 W/m2
00:57 61.5 °F 58.3 °F 30.1 in WNW 2.9 mph 4 mph 89% 0 in 0 W/m2
01:02 61.5 °F 58.3 °F 30.1 in WSW 2 mph 6 mph 89% 0 in 0 W/m2
01:07 61.5 °F 58.3 °F 30.1 in WSW 2.9 mph 4 mph 89% 0 in 0 W/m2
01:12 61.5 °F 58.3 °F 30.1 in West 6 mph 6 mph 89% 0 in 0 W/m2
01:17 61.3 °F 58.1 °F 30.1 in Calm   4 mph 89% 0 in 0 W/m2
01:22 61.3 °F 58.1 °F 30.1 in West 2 mph 6 mph 89% 0 in 0 W/m2
01:27 61.3 °F 58.1 °F 30.1 in West 4 mph 6 mph 89% 0 in 0 W/m2
01:32 61.3 °F 58.1 °F 30.1 in WNW 4 mph 10 mph 89% 0 in 0 W/m2
01:37 61.3 °F 58.1 °F 30.1 in West 4 mph 4 mph 89% 0 in 0 W/m2
01:42 61.3 °F 58.5 °F 30.1 in West 6 mph 10 mph 90% 0 in 0 W/m2
01:47 61.2 °F 58.3 °F 30.1 in WSW 2.9 mph 4 mph 90% 0 in 0 W/m2
01:52 61.2 °F 58.3 °F 30.1 in WSW 2 mph 4 mph 90% 0 in 0 W/m2
01:57 61.2 °F 58.3 °F 30.1 in WNW 2 mph 7 mph 90% 0 in 0 W/m2
02:02 61 °F 58.1 °F 30.1 in WNW 4.9 mph 6 mph 90% 0 in 0 W/m2
02:07 61 °F 57.7 °F 30.1 in WNW 2.9 mph 6 mph 89% 0 in 0 W/m2
02:12 61 °F 57.7 °F 30.1 in WNW 4 mph 7 mph 89% 0 in 0 W/m2
02:17 61 °F 57.7 °F 30.1 in WNW 2 mph 8 mph 89% 0 in 0 W/m2
02:22 60.8 °F 57.6 °F 30.1 in WNW 2.9 mph 7 mph 89% 0 in 0 W/m2
02:27 60.6 °F 57.4 °F 30.1 in West 2 mph 5 mph 89% 0 in 0 W/m2
02:32 60.6 °F 57.4 °F 30.1 in WNW 4 mph 6 mph 89% 0 in 0 W/m2
02:37 60.6 °F 57.7 °F 30.1 in South 2.9 mph 5 mph 90% 0 in 0 W/m2
02:42 60.4 °F 57.6 °F 30.1 in West 2 mph 6 mph 90% 0 in 0 W/m2
02:47 60.6 °F 57.7 °F 30.1 in West 2 mph 4 mph 90% 0 in 0 W/m2
02:52 60.6 °F 57.7 °F 30.1 in West 0.9 mph 2 mph 90% 0 in 0 W/m2
02:57 60.6 °F 57.7 °F 30.1 in West 2 mph 4 mph 90% 0 in 0 W/m2
03:02 60.6 °F 57.7 °F 30.1 in WSW 4.9 mph 8 mph 90% 0 in 0 W/m2
03:07 60.6 °F 57.7 °F 30.1 in West 2.9 mph 4 mph 90% 0 in 0 W/m2
03:12 60.6 °F 57.7 °F 30.1 in WNW 0.9 mph 4 mph 90% 0 in 0 W/m2
03:17 60.6 °F 57.7 °F 30.1 in West 2 mph 3 mph 90% 0 in 0 W/m2
03:22 60.6 °F 57.9 °F 30.1 in West 6 mph 7 mph 91% 0 in 0 W/m2
03:27 60.4 °F 57.7 °F 30.1 in NW 2.9 mph 7 mph 91% 0 in 0 W/m2
03:32 60.4 °F 57.7 °F 30.1 in West 2 mph 5 mph 91% 0 in 0 W/m2
03:37 60.4 °F 57.7 °F 30.1 in WSW 2.9 mph 5 mph 91% 0 in 0 W/m2
03:42 60.4 °F 58.1 °F 30.1 in West 2 mph 4 mph 92% 0 in 0 W/m2
03:47 60.4 °F 58.1 °F 30.1 in WSW 4 mph 5 mph 92% 0 in 0 W/m2
03:52 60.4 °F 58.1 °F 30.1 in West 2 mph 4 mph 92% 0 in 0 W/m2
03:57 60.4 °F 58.1 °F 30.1 in WSW 0.9 mph 5 mph 92% 0 in 0 W/m2
04:02 60.4 °F 58.1 °F 30.1 in West 2 mph 9 mph 92% 0 in 0 W/m2
04:07 60.4 °F 58.1 °F 30.1 in WSW 2.9 mph 10 mph 92% 0 in 0 W/m2
04:12 60.4 °F 58.1 °F 30.1 in WSW 2 mph 8 mph 92% 0 in 0 W/m2
04:17 60.4 °F 58.1 °F 30.1 in WNW 2.9 mph 10 mph 92% 0 in 0 W/m2
04:22 60.4 °F 58.1 °F 30.1 in WNW 4 mph 6 mph 92% 0 in 0 W/m2
04:27 60.4 °F 58.1 °F 30.1 in WNW 2 mph 10 mph 92% 0 in 0 W/m2
04:32 60.6 °F 58.3 °F 30.1 in West 4 mph 7 mph 92% 0 in 0 W/m2
04:37 60.6 °F 58.6 °F 30.1 in West 2 mph 10 mph 93% 0 in 0 W/m2
04:42 60.4 °F 58.5 °F 30.1 in West 2.9 mph 8 mph 93% 0 in 0 W/m2
04:47 60.4 °F 58.5 °F 30.1 in West 2 mph 8 mph 93% 0 in 0 W/m2
04:52 60.4 °F 58.5 °F 30.1 in WNW 2.9 mph 4 mph 93% 0 in 0 W/m2
04:57 60.4 °F 58.5 °F 30.1 in WSW 2 mph 8 mph 93% 0 in 0 W/m2
05:02 60.4 °F 58.5 °F 30.1 in WSW 2.9 mph 6 mph 93% 0 in 0 W/m2
05:07 60.4 °F 58.5 °F 30.1 in West 2.9 mph 7 mph 93% 0 in 0 W/m2
05:12 60.4 °F 58.5 °F 30.1 in WNW 4.9 mph 8 mph 93% 0 in 0 W/m2
05:17 60.4 °F 58.5 °F 30.1 in WSW 2 mph 6 mph 93% 0 in 0 W/m2
05:22 60.6 °F 58.6 °F 30.1 in WNW 4 mph 6 mph 93% 0 in 0 W/m2
05:27 60.6 °F 58.6 °F 30.1 in WNW 4 mph 5 mph 93% 0 in 0 W/m2
05:32 60.8 °F 58.8 °F 30.1 in West 2.9 mph 5 mph 93% 0 in 0 W/m2
05:37 61 °F 59 °F 30.1 in WNW 0.9 mph 6 mph 93% 0 in 0 W/m2
05:42 61 °F 59 °F 30.1 in West 6.9 mph 7 mph 93% 0 in 0 W/m2
05:47 61 °F 59 °F 30.1 in West 6 mph 6 mph 93% 0 in 0 W/m2
05:52 61 °F 59 °F 30.1 in West 2.9 mph 7 mph 93% 0 in 0 W/m2
05:57 61.2 °F 59.2 °F 30.1 in West 2.9 mph 5 mph 93% 0 in 0 W/m2
06:02 61.2 °F 59.2 °F 30.1 in West 4 mph 4 mph 93% 0 in 0 W/m2
06:07 61.2 °F 59.2 °F 30.1 in WSW 6.9 mph 8 mph 93% 0 in 0 W/m2
06:12 61.2 °F 59.2 °F 30.1 in NW 2.9 mph 7 mph 93% 0 in 0 W/m2
06:17 61.2 °F 58.8 °F 30.1 in SW 6 mph 9 mph 92% 0 in 0 W/m2
06:22 61.2 °F 58.8 °F 30.1 in West 4 mph 7 mph 92% 0 in 0 W/m2
06:27 61.3 °F 59 °F 30.1 in WSW 2 mph 4 mph 92% 0 in 0 W/m2
06:32 61.3 °F 59 °F 30.1 in West 2.9 mph 4 mph 92% 0 in 0 W/m2
06:37 61.3 °F 59 °F 30.1 in SW 2.9 mph 6 mph 92% 0 in 0 W/m2
06:42 61.3 °F 59 °F 30.1 in WSW 6.9 mph 8 mph 92% 0 in 0 W/m2
06:47 61.3 °F 59 °F 30.1 in West 4 mph 6 mph 92% 0 in 0 W/m2
06:52 61.3 °F 59 °F 30.1 in WSW 2.9 mph 6 mph 92% 0 in 0 W/m2
06:57 61.3 °F 59 °F 30.1 in WNW 2 mph 11 mph 92% 0 in 0 W/m2
07:02 61.5 °F 58.8 °F 30.1 in West 10.1 mph 10 mph 91% 0 in 5 W/m2
07:07 61.5 °F 59.2 °F 30.1 in West 8.1 mph 8 mph 92% 0 in 7 W/m2
07:12 61.5 °F 58.8 °F 30.1 in WNW 4 mph 8 mph 91% 0 in 7 W/m2
07:17 61.5 °F 59.2 °F 30.1 in West 6 mph 8 mph 92% 0 in 9 W/m2
07:22 61.3 °F 59 °F 30.1 in WNW 4 mph 7 mph 92% 0 in 9 W/m2
07:27 61.3 °F 58.6 °F 30.1 in WSW 6.9 mph 8 mph 91% 0 in 11 W/m2
07:32 61.3 °F 58.6 °F 30.1 in WNW 2 mph 6 mph 91% 0 in 9 W/m2
07:37 61.3 °F 58.6 °F 30.1 in West 10.1 mph 10 mph 91% 0 in 11 W/m2
07:42 61.3 °F 58.6 °F 30.1 in WSW 4 mph 8 mph 91% 0 in 12 W/m2
07:47 61.3 °F 58.6 °F 30.1 in West 10 mph 10 mph 91% 0 in 14 W/m2
07:52 61.3 °F 58.6 °F 30.1 in WNW 4 mph 8 mph 91% 0 in 21 W/m2
07:57 61.3 °F 58.6 °F 30.1 in WSW 4 mph 8 mph 91% 0 in 21 W/m2
08:02 61.3 °F 58.6 °F 30.1 in WNW 2.9 mph 6 mph 91% 0 in 21 W/m2
08:07 61.3 °F 58.6 °F 30.1 in West 4 mph 7 mph 91% 0 in 26 W/m2
08:12 61.5 °F 58.8 °F 30.1 in WSW 2 mph 9 mph 91% 0 in 30 W/m2
08:17 61.5 °F 58.8 °F 30.1 in WNW 8.1 mph 8 mph 91% 0 in 28 W/m2
08:22 61.5 °F 59.2 °F 30.1 in West 2.9 mph 4 mph 92% 0 in 26 W/m2
08:27 61.5 °F 59.2 °F 30.1 in WSW 4 mph 8 mph 92% 0 in 30 W/m2
08:32 61.5 °F 59.2 °F 30.1 in SW 4.9 mph 8 mph 92% 0 in 30 W/m2
08:37 61.3 °F 59 °F 30.1 in WNW 4 mph 7 mph 92% 0 in 33 W/m2
08:42 61.3 °F 59 °F 30.1 in West 6 mph 8 mph 92% 0 in 35 W/m2
08:47 61.3 °F 59 °F 30.1 in WSW 2.9 mph 5 mph 92% 0 in 39 W/m2
08:52 61.3 °F 59 °F 30.1 in West 4 mph 4 mph 92% 0 in 53 W/m2
08:57 61.3 °F 59 °F 30.1 in West 2.9 mph 4 mph 92% 0 in 69 W/m2
09:02 61.5 °F 59.2 °F 30.1 in West 2.9 mph 8 mph 92% 0 in 56 W/m2
09:07 61.5 °F 59.2 °F 30.1 in WNW 2.9 mph 8 mph 92% 0 in 77 W/m2
09:12 61.7 °F 59.4 °F 30.1 in WSW 2.9 mph 7 mph 92% 0 in 102 W/m2
09:17 61.9 °F 59.5 °F 30.1 in WNW 4 mph 8 mph 92% 0 in 139 W/m2
09:23 62.1 °F 59.7 °F 30.1 in WNW 6.9 mph 7 mph 92% 0 in 134 W/m2
09:28 62.2 °F 59.5 °F 30.1 in West 8.9 mph 10 mph 91% 0 in 141 W/m2
09:33 62.4 °F 59.7 °F 30.1 in West 6.9 mph 9 mph 91% 0 in 142 W/m2
09:38 62.6 °F 59.9 °F 30.1 in NW 4 mph 8 mph 91% 0 in 128 W/m2
09:43 62.8 °F 60.1 °F 30.1 in WNW 4 mph 7 mph 91% 0 in 139 W/m2
09:48 62.8 °F 60.1 °F 30.1 in WSW 8.1 mph 8 mph 91% 0 in 155 W/m2
09:53 63 °F 59.9 °F 30.1 in WNW 4 mph 8 mph 90% 0 in 156 W/m2
09:58 63.1 °F 60.1 °F 30.1 in West 2.9 mph 9 mph 90% 0 in 197 W/m2
10:03 63.3 °F 60.3 °F 30.1 in West 8.9 mph 10 mph 90% 0 in 220 W/m2
10:08 63.3 °F 60.1 °F 30.1 in West 6 mph 8 mph 89% 0 in 181 W/m2
10:13 63.7 °F 60.4 °F 30.1 in WNW 4.9 mph 8 mph 89% 0 in 176 W/m2
10:18 63.7 °F 60.4 °F 30.1 in WSW 4 mph 9 mph 89% 0 in 204 W/m2
10:23 63.7 °F 60.1 °F 30.1 in NW 6 mph 10 mph 88% 0 in 243 W/m2
10:28 63.9 °F 60.3 °F 30.1 in WSW 4 mph 9 mph 88% 0 in 253 W/m2
10:33 64 °F 60.4 °F 30.1 in West 10 mph 10 mph 88% 0 in 190 W/m2
10:38 64.2 °F 60.6 °F 30.1 in WSW 4.9 mph 8 mph 88% 0 in 183 W/m2
10:43 64.2 °F 60.3 °F 30.1 in West 4 mph 8 mph 87% 0 in 176 W/m2
10:48 64.4 °F 60.8 °F 30.1 in West 2 mph 10 mph 88% 0 in 220 W/m2
10:53 64.6 °F 60.6 °F 30.1 in WSW 4.9 mph 8 mph 87% 0 in 171 W/m2
10:58 64.6 °F 60.6 °F 30.1 in WSW 2.9 mph 10 mph 87% 0 in 169 W/m2
11:03 64.8 °F 60.8 °F 30.1 in WSW 4 mph 8 mph 87% 0 in 357 W/m2
11:08 65.1 °F 60.8 °F 30.1 in West 2.9 mph 7 mph 86% 0 in 274 W/m2
11:13 65.3 °F 61 °F 30.1 in WSW 4.9 mph 10 mph 86% 0 in 183 W/m2
11:18 65.1 °F 60.8 °F 30.1 in West 8.9 mph 9 mph 86% 0 in 248 W/m2
11:23 65.1 °F 60.8 °F 30.1 in West 8.1 mph 10 mph 86% 0 in 272 W/m2
11:28 65.3 °F 61 °F 30.1 in NW 2.9 mph 7 mph 86% 0 in 253 W/m2
11:33 65.3 °F 60.6 °F 30.1 in WNW 8 mph 8 mph 85% 0 in 279 W/m2
11:38 65.7 °F 61.3 °F 30.1 in WNW 4.9 mph 8 mph 86% 0 in 295 W/m2
11:43 65.8 °F 61.2 °F 30.1 in West 2.9 mph 6 mph 85% 0 in 360 W/m2
11:48 66.4 °F 61.7 °F 30.1 in West 4 mph 8 mph 85% 0 in 441 W/m2
11:53 66.6 °F 61.2 °F 30.1 in NW 2 mph 5 mph 83% 0 in 396 W/m2
11:58 66.7 °F 61.3 °F 30.1 in NW 2 mph 8 mph 83% 0 in 348 W/m2
12:03 66.9 °F 61.5 °F 30.1 in WNW 2.9 mph 6 mph 83% 0 in 413 W/m2
12:08 66.9 °F 61.5 °F 30.1 in WNW 4 mph 8 mph 83% 0 in 221 W/m2
12:13 66.9 °F 61.2 °F 30.1 in West 2.9 mph 4 mph 82% 0 in 195 W/m2
12:18 66.9 °F 61.2 °F 30.1 in WSW 4 mph 6 mph 82% 0 in 213 W/m2
12:23 66.9 °F 61.5 °F 30.1 in West 2 mph 3 mph 83% 0 in 279 W/m2
12:28 67.1 °F 61.3 °F 30.1 in West 4 mph 6 mph 82% 0 in 299 W/m2
12:33 67.3 °F 61.2 °F 30.1 in NW 2.9 mph 3 mph 81% 0 in 255 W/m2
12:38 67.5 °F 61.3 °F 30.1 in Calm   3 mph 81% 0 in 207 W/m2
12:43 67.5 °F 61.2 °F 30.1 in West 2 mph 4 mph 80% 0 in 91 W/m2
12:48 67.5 °F 61.2 °F 30.1 in NNW 2 mph 3 mph 80% 0 in 88 W/m2
12:53 67.5 °F 61.3 °F 30.1 in West 2.9 mph 9 mph 81% 0 in 197 W/m2
12:58 67.5 °F 61.2 °F 30.1 in NW 2.9 mph 4 mph 80% 0 in 246 W/m2
13:03 67.8 °F 61.3 °F 30.1 in NE 0.9 mph 8 mph 80% 0 in 227 W/m2
13:08 68.2 °F 61.7 °F 30.1 in NE 2 mph 4 mph 80% 0 in 292 W/m2
13:13 68.2 °F 61.7 °F 30.1 in North 0.9 mph 1 mph 80% 0 in 149 W/m2
13:18 68.4 °F 61.5 °F 30.1 in East 2 mph 3 mph 79% 0 in 74 W/m2
13:23 68.2 °F 61.3 °F 30.1 in East 0.9 mph 3 mph 79% 0 in 149 W/m2
13:28 68.2 °F 61.7 °F 30.1 in Calm   2 mph 80% 0 in 213 W/m2
13:33 68.4 °F 62.2 °F 30.1 in East 4 mph 4 mph 81% 0 in 281 W/m2
13:38 69.1 °F 62.6 °F 30.1 in SE 2 mph 5 mph 80% 0 in 986 W/m2
13:43 69.8 °F 62.6 °F 30.1 in NNW 0.9 mph 2 mph 78% 0 in 267 W/m2
13:48 70.2 °F 61.9 °F 30.1 in NE 2 mph 5 mph 75% 0 in 272 W/m2
13:53 70.2 °F 61.9 °F 30.1 in West 2 mph 2 mph 75% 0 in 260 W/m2
13:58 70.2 °F 61.5 °F 30.1 in WNW 2 mph 5 mph 74% 0 in 232 W/m2
14:03 70 °F 61.3 °F 30.1 in NW 4 mph 4 mph 74% 0 in 348 W/m2
14:08 70.2 °F 61.5 °F 30.1 in East 0.9 mph 4 mph 74% 0 in 329 W/m2
14:13 70.2 °F 60.6 °F 30.1 in Calm   4 mph 72% 0 in 313 W/m2
14:18 70.5 °F 61.9 °F 30.1 in NNW 2 mph 2 mph 74% 0 in 392 W/m2
14:23 70.7 °F 59.5 °F 30.1 in Calm   5 mph 68% 0 in 216 W/m2
14:28 71.1 °F 59.5 °F 30.1 in NW 2.9 mph 6 mph 67% 0 in 216 W/m2
14:33 71.1 °F 59.2 °F 30.1 in ENE 2.9 mph 3 mph 66% 0 in 185 W/m2
14:38 71.8 °F 59.7 °F 30.1 in NE 4.9 mph 6 mph 66% 0 in 946 W/m2
14:43 71.8 °F 59.4 °F 30.1 in NE 4 mph 7 mph 65% 0 in 137 W/m2
14:48 72 °F 59.5 °F 30.1 in ESE 0.9 mph 10 mph 65% 0 in 775 W/m2
14:53 72.3 °F 59.9 °F 30.1 in ESE 4 mph 8 mph 65% 0 in 816 W/m2
14:58 72.7 °F 60.3 °F 30.1 in ENE 4.9 mph 6 mph 65% 0 in 888 W/m2
15:03 72.9 °F 59.5 °F 30.1 in NE 4 mph 10 mph 63% 0 in 909 W/m2
15:08 72.7 °F 59.4 °F 30.1 in NNE 0.9 mph 7 mph 63% 0 in 840 W/m2
15:13 72.7 °F 58.5 °F 30.1 in WNW 0.9 mph 9 mph 61% 0 in 782 W/m2
15:18 73.2 °F 59.4 °F 30.1 in SE 2.9 mph 8 mph 62% 0 in 729 W/m2
15:23 73.6 °F 58.8 °F 30.1 in ESE 4 mph 11 mph 60% 0 in 722 W/m2
15:28 73.6 °F 58.3 °F 30.1 in NW 0.9 mph 6 mph 59% 0 in 735 W/m2
15:33 74.1 °F 59.4 °F 30.1 in East 4 mph 11 mph 60% 0 in 715 W/m2
15:38 74.7 °F 58.8 °F 30.1 in ENE 4.9 mph 10 mph 58% 0 in 698 W/m2
15:43 74.3 °F 58.6 °F 30.1 in ENE 0.9 mph 11 mph 58% 0 in 682 W/m2
15:48 74.3 °F 59 °F 30.1 in SE 2.9 mph 9 mph 59% 0 in 698 W/m2
15:53 74.3 °F 59 °F 30.1 in NE 6.9 mph 11 mph 59% 0 in 731 W/m2
15:59 74.1 °F 58.8 °F 30.1 in ESE 2.9 mph 6 mph 59% 0 in 691 W/m2
16:04 74.5 °F 58.8 °F 30.1 in NE 4 mph 9 mph 58% 0 in 661 W/m2
16:09 74.5 °F 59.2 °F 30.1 in North 2 mph 6 mph 59% 0 in 654 W/m2
16:14 74.7 °F 58.8 °F 30.1 in North 6 mph 9 mph 58% 0 in 675 W/m2
16:19 74.8 °F 59 °F 30.1 in North 2 mph 5 mph 58% 0 in 650 W/m2
16:24 75 °F 59.7 °F 30.1 in NNW 2 mph 5 mph 59% 0 in 659 W/m2
16:29 75.4 °F 60.1 °F 30.1 in NNW 2 mph 4 mph 59% 0 in 577 W/m2
16:34 74.8 °F 60.4 °F 30.1 in NNW 2 mph 8 mph 61% 0 in 139 W/m2
16:39 74.1 °F 60.3 °F 30.1 in ENE 2 mph 4 mph 62% 0 in 130 W/m2
16:44 73.6 °F 60.3 °F 30.1 in SSE 0.9 mph 3 mph 63% 0 in 230 W/m2
16:49 73 °F 60.1 °F 30.1 in NE 2.9 mph 4 mph 64% 0 in 601 W/m2
16:54 73.2 °F 59.4 °F 30.1 in NNE 2.9 mph 5 mph 62% 0 in 246 W/m2
16:59 73.4 °F 60.4 °F 30.1 in Calm   3 mph 64% 0 in 624 W/m2
17:04 73.9 °F 60.1 °F 30.1 in WNW 2.9 mph 5 mph 62% 0 in 624 W/m2
17:09 74.5 °F 60.6 °F 30.1 in East 2 mph 3 mph 62% 0 in 531 W/m2
17:14 74.7 °F 58.8 °F 30.1 in North 2 mph 7 mph 58% 0 in 503 W/m2
17:19 74.7 °F 60.8 °F 30.1 in WNW 2.9 mph 5 mph 62% 0 in 482 W/m2
17:24 74.8 °F 60.1 °F 30.1 in WNW 6 mph 7 mph 60% 0 in 468 W/m2
17:29 74.3 °F 59.9 °F 30.1 in WNW 8.1 mph 10 mph 61% 0 in 454 W/m2
17:34 74.1 °F 60.3 °F 30.1 in NW 4.9 mph 5 mph 62% 0 in 439 W/m2
17:39 74.1 °F 59.7 °F 30.1 in West 2 mph 9 mph 61% 0 in 443 W/m2
17:44 74.3 °F 60.4 °F 30.1 in NNW 0.9 mph 4 mph 62% 0 in 429 W/m2
17:49 74.5 °F 59.7 °F 30.1 in ENE 4.9 mph 6 mph 60% 0 in 452 W/m2
17:54 74.5 °F 60.1 °F 30.1 in ENE 0.9 mph 4 mph 61% 0 in 494 W/m2
17:59 74.8 °F 60.4 °F 30.1 in NNE 2 mph 7 mph 61% 0 in 464 W/m2
18:04 75.2 °F 60.4 °F 30.1 in NW 6.9 mph 9 mph 60% 0 in 77 W/m2
18:09 74.5 °F 60.6 °F 30.1 in East 12.1 mph 12 mph 62% 0 in 51 W/m2
18:14 73.2 °F 60.8 °F 30.1 in NW 0.9 mph 9 mph 65% 0 in 51 W/m2
18:19 72.1 °F 60.1 °F 30.1 in NNE 2.9 mph 8 mph 66% 0 in 63 W/m2
18:24 71.2 °F 60.1 °F 30.1 in NNW 2 mph 6 mph 68% 0 in 79 W/m2
18:29 70.5 °F 59.9 °F 30.1 in SSW 0.9 mph 11 mph 69% 0 in 77 W/m2
18:34 70.2 °F 59.9 °F 30.1 in West 2.9 mph 8 mph 70% 0 in 74 W/m2
18:39 70 °F 60.1 °F 30.1 in NNE 4.9 mph 6 mph 71% 0 in 91 W/m2
18:44 70 °F 60.6 °F 30.1 in NNW 0.9 mph 5 mph 72% 0 in 255 W/m2
18:49 70.2 °F 60.6 °F 30.1 in North 0.9 mph 6 mph 72% 0 in 227 W/m2
18:54 70.3 °F 60.8 °F 30.1 in North 0.9 mph 3 mph 72% 0 in 214 W/m2
18:59 70.3 °F 60.8 °F 30.1 in ENE 2 mph 10 mph 72% 0 in 211 W/m2
19:04 70.3 °F 60.8 °F 30.1 in ESE 2 mph 6 mph 72% 0 in 202 W/m2
19:09 70.2 °F 60.6 °F 30.1 in West 2 mph 6 mph 72% 0 in 155 W/m2
19:14 69.8 °F 60.8 °F 30.1 in West 2.9 mph 8 mph 73% 0 in 171 W/m2
19:19 69.8 °F 60.8 °F 30.1 in SSE 2.9 mph 6 mph 73% 0 in 165 W/m2
19:24 70 °F 61 °F 30.1 in East 4 mph 6 mph 73% 0 in 160 W/m2
19:29 70 °F 60.6 °F 30.1 in East 2 mph 12 mph 72% 0 in 130 W/m2
19:34 69.6 °F 60.3 °F 30.1 in North 2.9 mph 5 mph 72% 0 in 111 W/m2
19:44 69.3 °F 59.9 °F 30.2 in WNW 2.9 mph 8 mph 72% 0 in 84 W/m2
19:49 69.1 °F 59.7 °F 30.2 in NW 2.9 mph 3 mph 72% 0 in 76 W/m2
19:54 68.7 °F 59.7 °F 30.2 in West 2.9 mph 4 mph 73% 0 in 62 W/m2
19:59 68.5 °F 59.5 °F 30.2 in NW 0.9 mph 4 mph 73% 0 in 42 W/m2
20:04 68.2 °F 59.5 °F 30.2 in ENE 4 mph 6 mph 74% 0 in 33 W/m2
20:09 67.6 °F 59.4 °F 30.2 in SE 0.9 mph 7 mph 75% 0 in 23 W/m2
20:14 67.5 °F 59.5 °F 30.2 in South 0.9 mph 4 mph 76% 0 in 16 W/m2
20:19 67.3 °F 59.9 °F 30.2 in South 2 mph 2 mph 77% 0 in 14 W/m2
20:24 66.9 °F 59.5 °F 30.2 in NE 0.9 mph 2 mph 77% 0 in 11 W/m2
20:29 66.7 °F 59.7 °F 30.2 in WNW 0.9 mph 5 mph 78% 0 in 7 W/m2
20:34 66.6 °F 59.9 °F 30.2 in Calm   8 mph 79% 0 in 0 W/m2
20:44 66.4 °F 60.1 °F 30.2 in NNW 2.9 mph 8 mph 80% 0 in 0 W/m2
20:49 66 °F 59.7 °F 30.2 in NNE 0.9 mph 5 mph 80% 0 in 0 W/m2
20:59 65.8 °F 59.9 °F 30.2 in West 4 mph 4 mph 81% 0 in 0 W/m2
21:04 65.8 °F 59.9 °F 30.2 in Calm   2 mph 81% 0 in 0 W/m2
21:09 65.7 °F 60.1 °F 30.2 in East 0.9 mph 3 mph 82% 0 in 0 W/m2
21:14 65.7 °F 60.1 °F 30.2 in Calm   2 mph 82% 0 in 0 W/m2
21:19 65.5 °F 59.9 °F 30.2 in NW 0.9 mph 4 mph 82% 0 in 0 W/m2
21:24 65.5 °F 59.9 °F 30.2 in East 2 mph 3 mph 82% 0 in 0 W/m2
21:29 65.3 °F 59.7 °F 30.2 in Calm   1 mph 82% 0 in 0 W/m2
21:34 65.1 °F 59.5 °F 30.2 in ESE 0.9 mph 2 mph 82% 0 in 0 W/m2
21:44 64.9 °F 59.7 °F 30.2 in SW 0.9 mph 4 mph 83% 0 in 0 W/m2
21:49 64.8 °F 59.5 °F 30.2 in East 0.9 mph 2 mph 83% 0 in 0 W/m2
21:54 64.8 °F 59.5 °F 30.2 in NE 0.9 mph 6 mph 83% 0 in 0 W/m2
21:59 64.8 °F 59.5 °F 30.2 in NNE 0.9 mph 6 mph 83% 0 in 0 W/m2
22:04 64.8 °F 59.5 °F 30.2 in NW 2 mph 4 mph 83% 0 in 0 W/m2
22:09 64.8 °F 59.5 °F 30.2 in NE 2 mph 6 mph 83% 0 in 0 W/m2
22:14 64.9 °F 59.7 °F 30.2 in SW 0.9 mph 2 mph 83% 0 in 0 W/m2
22:19 64.9 °F 59.7 °F 30.2 in Calm   4 mph 83% 0 in 0 W/m2
22:24 64.9 °F 59.4 °F 30.2 in ENE 0.9 mph 4 mph 82% 0 in 0 W/m2
22:29 64.9 °F 59.4 °F 30.2 in Calm   4 mph 82% 0 in 0 W/m2
22:34 64.9 °F 59.4 °F 30.2 in SSE 0.9 mph 3 mph 82% 0 in 0 W/m2
22:39 64.9 °F 59 °F 30.2 in NW 0.9 mph 4 mph 81% 0 in 0 W/m2
22:44 64.9 °F 59 °F 30.2 in NNE 2.9 mph 4 mph 81% 0 in 0 W/m2
22:49 64.8 °F 58.8 °F 30.2 in West 0.9 mph 3 mph 81% 0 in 0 W/m2
22:54 64.8 °F 58.8 °F 30.2 in Calm   2 mph 81% 0 in 0 W/m2
22:59 64.8 °F 58.8 °F 30.2 in SE 0.9 mph 2 mph 81% 0 in 0 W/m2
23:04 64.8 °F 58.8 °F 30.2 in NNE 2 mph 5 mph 81% 0 in 0 W/m2
23:09 64.8 °F 58.5 °F 30.2 in Calm   4 mph 80% 0 in 0 W/m2
23:14 64.8 °F 58.8 °F 30.2 in NW 0.9 mph 2 mph 81% 0 in 0 W/m2
23:19 64.8 °F 58.8 °F 30.2 in ENE 0.9 mph 3 mph 81% 0 in 0 W/m2
23:24 64.8 °F 58.5 °F 30.2 in NE 2.9 mph 4 mph 80% 0 in 0 W/m2
23:29 64.8 °F 58.8 °F 30.2 in Calm   3 mph 81% 0 in 0 W/m2
23:34 64.8 °F 58.8 °F 30.2 in NNW 2 mph 2 mph 81% 0 in 0 W/m2
23:39 64.8 °F 58.8 °F 30.2 in ENE 2.9 mph 4 mph 81% 0 in 0 W/m2
23:44 64.8 °F 58.8 °F 30.2 in North 2 mph 6 mph 81% 0 in 0 W/m2
23:49 64.8 °F 58.8 °F 30.2 in ESE 2 mph 2 mph 81% 0 in 0 W/m2
23:54 64.6 °F 58.6 °F 30.2 in East 0.9 mph 2 mph 81% 0 in 0 W/m2
23:59 64.6 °F 59 °F 30.2 in Calm   2 mph 82% 0 in 0 W/m2
Juneau County Weather
Compliments of Weather Underground - 4 mb